Probability
0 0 0 0 0 0 0 0 0 0 0 0 0 0 0 0 0 0 0 0 0 0 0 0 0 0 0 0 0 0 0 0 0 0 0 0 0 0
0 0 0 0 0 0 0 0 0 0 0 0 0 0 0 0 0 0 0 0 0 0 0 0 0 0 0 0 0 0 0 0 0 0 0 0 0 0
0 0 0 0 0 0 0 0 0 0 0 0 0 0 0 0 0 0 0 0 0 0 0 0 0 0 0 0 0 0 0 0 0 0 0 0 0 0
0 0 0 0 0 0 0 0 0 0 0 0 0 0 0 0 0 0 0 0 0 0 0 0 0 0 0 0 0 0 0 0 0 0 0 0 0 0
0 0 0 0 0 0 0 0 0 0 0 0 0 0 0 0 0 0 0 0 0 0 0 0 0 0 0 0 0 0 0 0 0 0 0 0 0 0
0 0 0 0 0 0 0 0 0 0 0 0 0 0 0 0 0 0 0 0 0 0 0 0 0 0 0 0 0 0 0 0 0 0 0 0 0 0
0 0 0 0 0 0 0 0 0 0 0 0 0 0 0 0 0 0 0 0 0 0 0 0 0 0 0 0 0 0 0 0 0 0 0 0 0 0
0 0 0 0 0 0 0 0 0 0 0 0 0 0 0 0 0 0 0 0 0 0 0 0 0 0 0 0 0 0 0 0 0 0 0 0 0 0
0 0 0 0 0 0 0 0 0 0 0 0 0 0 0 0 0 0 0 0 0 0 0 0 0 0 0 0 0 0 0 0 0 0 0 0 0 0
0 0 0 0 0 0 0 0 0 0 0 0 0 0 0 0 0 0 0 0 0 0 0 0 0 0 0 0 0 0 0 0 0 0 0 0 0 0
0 0 0 0 0 0 0 0 0 0 0 0 0 0 0 0 0 0 0 0 0 0 0 0 0 0 0 0 0 0 0 0 0 0 0 0 0 0
0 0 0 0 0 0 0 0 0 0 0 0 0 0 0 0 0 0 0 0 0 0 0 0 0 0 0 0 0 0 0 0 0 0 0 0 0 0
0 0 0 0 0 0 0 0 0 0 0 0 0 0 0 0 0 0 0 0 0 0 0 0 0 0 0 0 0 0 0 0 0 0 0 0 0 0
0 0 0 0 0 0 0 0 0 0 0 0 0 0 0 0 0 0 0 0 0 0 0 0 0 0 0 0 0 0 0 0 0 0 0 0 0 0
0 0 0 0 0 0 0 0 0 0 0 0 0 0 0 0 0 0 0 0 0 0 0 0 0 0 0 0 0 0 0 0 0 0 0 0 0 0
0 0 0 0 0 0 0 0 0 0 0 0 0 0 0 0 0 0 0 0 0 0 0 0 0 0 0 0 0 0 0 0 0 0 0 0 0 0
0 0 0 0 0 0 0 0 0 0 0 0 0 0 0 0 0 0 0 0 0 0 0 0 0 0 0 0 0 0 0 0 0 0 0 0 0 0
0 0 0 0 0 0 0 0 0 0 0 0 0 0 0 0 0 0 0 0 0 0 0 0 0 0 0 0 0 0 0 0 0 0 0 0 0 0
0 0 0 0 0 0 0 0 0 0 0 0 0 0 0 0 0 0 0 0 0 0 0 0 0 0 0 0 0 0 0 0 0 0 0 0 0 0
0 0 0 0 0 0 0 0 0 0 0 0 0 0 0 0 0 0 0 0 0 0 0 0 0 0 0 0 0 0 0 0 0 0 0 0 0 0
0 0 0 0 0 0 0 0 0 0 0 0 0 0 0 0 0 0 0 0 0 0 0 0 0 0 0 0 0 0 0 0 0 0 0 0 0 0
0 0 0 0 0 0 0 0 0 0 0 0 0 0 0 0 0 0 0 0 0 0 0 0 0 0 0 0 0 0 0 0 0 0 0 0 0 0
0 0 0 0 0 0 0 0 0 0 0 0 0 0 0 0 0 0 0 0 0 0 0 0 0 0 0 0 0 0 0 0 0 0 0 0 0 0
Height
5711 5710 5709 5708 5706 5705 5703 5702 5700 5699 5697 5694 5691 5689 5686 5684 5681 5679 5676 5674 5671 5668 5664 5661 5658 5655 5652 5649 5646 5643 5640 5638 5635 5633 5631 5629 5627 5626
5699 5698 5697 5696 5694 5693 5691 5689 5687 5685 5684 5681 5678 5675 5672 5669 5666 5664 5661 5658 5655 5652 5648 5645 5642 5638 5635 5632 5629 5625 5622 5619 5616 5614 5611 5609 5608 5606
5687 5686 5685 5683 5681 5680 5678 5676 5673 5671 5669 5667 5664 5661 5657 5654 5651 5648 5645 5641 5638 5635 5631 5628 5624 5620 5617 5613 5610 5606 5602 5599 5596 5594 5591 5589 5588 5587
5674 5673 5671 5670 5668 5666 5664 5662 5659 5657 5654 5652 5649 5645 5642 5638 5635 5632 5628 5624 5621 5617 5613 5609 5605 5601 5597 5594 5590 5586 5582 5578 5575 5573 5570 5569 5567 5566
5661 5660 5658 5656 5654 5652 5650 5647 5644 5641 5639 5636 5633 5630 5626 5622 5618 5615 5611 5607 5603 5598 5594 5589 5585 5581 5577 5573 5569 5564 5560 5557 5554 5551 5548 5547 5545 5544
5648 5646 5644 5642 5640 5638 5635 5632 5629 5626 5623 5620 5617 5614 5610 5605 5601 5598 5594 5589 5585 5580 5575 5570 5565 5560 5556 5552 5548 5543 5539 5535 5532 5529 5527 5525 5524 5522
5634 5632 5630 5628 5626 5623 5621 5617 5614 5611 5607 5604 5601 5597 5593 5589 5584 5580 5576 5572 5568 5561 5556 5551 5546 5541 5536 5531 5526 5522 5518 5514 5511 5508 5506 5504 5502 5501
5620 5618 5616 5614 5611 5608 5605 5602 5599 5595 5592 5588 5585 5581 5576 5571 5567 5562 5557 5554 5550 5545 5537 5533 5526 5521 5516 5511 5506 5501 5497 5494 5491 5488 5486 5483 5482 5480
5606 5604 5602 5599 5596 5593 5590 5587 5583 5579 5575 5572 5568 5564 5559 5554 5549 5545 5540 5534 5530 5524 5518 5514 5507 5502 5497 5492 5486 5482 5478 5474 5471 5469 5466 5464 5462 5460
5592 5589 5587 5584 5581 5578 5575 5572 5568 5564 5560 5556 5552 5547 5542 5537 5532 5527 5522 5517 5513 5506 5499 5495 5490 5485 5479 5474 5469 5464 5460 5457 5453 5450 5447 5445 5443 5441
5577 5575 5572 5569 5566 5563 5560 5557 5554 5549 5545 5540 5536 5531 5526 5520 5514 5509 5504 5499 5495 5490 5483 5477 5473 5468 5463 5458 5453 5448 5444 5440 5436 5433 5430 5427 5425 5424
5563 5560 5557 5554 5551 5547 5544 5541 5538 5534 5530 5525 5521 5516 5510 5504 5498 5492 5487 5482 5478 5474 5468 5461 5456 5451 5448 5444 5438 5432 5428 5424 5420 5417 5414 5411 5409 5408
5548 5545 5542 5539 5536 5532 5528 5525 5522 5518 5514 5510 5505 5500 5494 5489 5483 5477 5471 5466 5462 5457 5452 5446 5441 5435 5431 5429 5425 5418 5413 5409 5406 5402 5399 5397 5395 5393
5533 5530 5527 5524 5521 5517 5513 5510 5505 5501 5497 5494 5489 5484 5479 5473 5468 5462 5457 5452 5446 5442 5437 5431 5427 5422 5417 5414 5411 5406 5401 5396 5392 5389 5387 5384 5383 5381
5518 5515 5512 5509 5506 5502 5498 5494 5489 5485 5481 5477 5473 5468 5463 5458 5453 5448 5443 5437 5433 5428 5423 5418 5413 5409 5404 5401 5397 5393 5389 5385 5381 5378 5375 5373 5372 5370
5503 5500 5497 5493 5490 5486 5483 5478 5474 5469 5465 5461 5457 5452 5447 5443 5438 5433 5429 5424 5420 5416 5410 5405 5401 5397 5393 5389 5385 5382 5378 5374 5371 5368 5365 5363 5362 5360
5487 5485 5482 5478 5475 5471 5467 5463 5458 5454 5450 5445 5441 5437 5433 5429 5424 5420 5415 5411 5407 5403 5399 5394 5390 5386 5382 5378 5374 5371 5367 5364 5361 5358 5356 5355 5353 5352
5472 5469 5466 5463 5460 5456 5452 5448 5443 5439 5435 5431 5427 5423 5419 5415 5411 5407 5403 5399 5395 5392 5388 5384 5379 5375 5372 5368 5365 5361 5357 5354 5352 5349 5347 5346 5345 5344
5457 5455 5451 5448 5444 5440 5436 5432 5428 5424 5420 5416 5413 5409 5405 5402 5398 5395 5391 5388 5384 5381 5377 5373 5369 5365 5362 5359 5356 5352 5348 5345 5343 5341 5340 5339 5338 5337
5443 5440 5436 5433 5429 5425 5421 5417 5414 5410 5406 5403 5399 5396 5392 5389 5386 5383 5380 5377 5373 5370 5366 5363 5359 5355 5352 5349 5347 5344 5340 5338 5336 5334 5333 5332 5331 5330
5429 5426 5422 5418 5414 5410 5407 5403 5400 5397 5394 5390 5387 5384 5381 5378 5375 5372 5369 5366 5363 5359 5356 5353 5350 5346 5343 5340 5338 5336 5333 5330 5328 5327 5326 5325 5324 5323
5416 5412 5408 5404 5401 5397 5394 5391 5388 5385 5382 5379 5376 5373 5370 5367 5365 5362 5359 5356 5353 5350 5347 5344 5341 5338 5335 5332 5330 5328 5326 5324 5322 5321 5319 5318 5317 5317
5402 5399 5395 5392 5388 5385 5382 5380 5377 5374 5371 5368 5366 5363 5360 5358 5355 5353 5350 5347 5344 5341 5338 5336 5333 5330 5327 5325 5323 5321 5319 5318 5316 5315 5314 5312 5311 5310
Wind_Speed
44 45 46 47 47 48 49 49 49 49 50 50 51 52 53 54 54 55 56 57 57 58 59 59 60 60 60 61 61 62 63 63 63 63 63 63 63 62
47 47 46 47 48 49 50 51 51 51 52 52 53 54 55 56 57 57 58 58 59 59 60 60 61 61 62 63 64 65 65 66 66 66 65 65 65 64
48 48 49 49 49 49 50 51 52 53 54 54 56 57 57 58 58 59 59 60 60 61 62 63 63 64 64 65 66 67 67 68 68 68 67 67 66 65
49 49 50 51 51 51 51 52 54 55 55 56 57 58 59 59 59 60 61 62 63 64 65 66 66 67 67 68 68 69 69 69 69 69 68 68 68 67
49 50 50 50 51 52 53 54 55 55 56 57 58 58 59 60 60 61 62 63 65 66 67 68 68 69 69 70 70 70 70 69 69 68 67 67 67 67
49 50 50 51 52 53 53 54 55 56 57 58 58 59 60 61 62 63 63 64 65 66 67 68 69 70 70 70 70 70 69 68 67 67 67 66 66 66
49 50 51 52 52 53 54 55 56 57 57 58 59 60 61 62 63 64 65 65 65 67 67 68 69 69 69 69 69 68 67 66 65 65 65 65 65 64
50 50 51 52 53 54 55 56 57 57 58 58 59 60 60 62 63 64 65 65 65 66 67 67 67 67 67 67 66 65 64 64 63 63 62 62 62 62
51 51 52 53 54 55 55 56 57 58 58 59 59 59 60 61 63 64 64 65 65 65 65 64 64 64 64 63 63 63 62 61 61 60 60 60 60 59
51 52 53 53 54 55 55 56 56 57 58 58 58 59 60 61 62 63 64 64 64 63 64 62 61 61 61 60 59 59 59 58 58 59 59 58 57 56
52 52 53 53 54 54 55 55 56 56 57 58 57 58 58 59 61 62 61 61 60 59 60 60 60 59 58 57 56 56 56 56 56 55 55 54 53 52
52 52 52 52 53 54 55 55 56 56 57 57 57 58 59 60 60 61 60 59 59 58 57 57 57 56 54 53 53 52 52 52 52 51 50 49 48 48
51 52 52 53 53 54 55 55 56 56 56 56 57 58 59 59 59 58 58 58 57 56 55 54 53 52 51 49 48 48 48 48 47 46 45 44 44 43
51 52 52 52 53 54 54 55 55 56 56 56 57 58 57 56 55 54 54 55 54 54 53 52 51 50 48 47 45 45 45 44 44 42 41 40 39 39
52 52 52 52 53 54 54 55 55 56 56 57 57 56 55 54 53 53 53 52 51 50 50 49 48 46 46 44 42 41 41 40 39 38 37 36 35 35
51 51 52 53 53 54 54 54 55 56 56 56 55 54 53 52 51 51 50 49 48 47 47 46 44 43 42 41 40 39 38 37 36 35 34 32 32 31
51 51 52 52 52 53 54 54 54 54 54 53 52 51 50 50 49 48 47 46 46 44 43 43 42 41 40 39 39 37 36 34 34 33 31 30 29 29
50 51 51 52 52 52 53 53 52 52 52 51 49 49 48 47 46 45 44 43 42 41 41 40 39 39 38 37 37 36 34 33 31 30 29 28 27 27
49 50 51 51 51 52 51 51 50 50 49 48 47 46 45 43 42 41 41 40 40 39 38 38 38 37 36 35 34 33 31 29 28 27 26 25 24 24
48 49 49 50 50 49 49 48 47 46 45 44 43 42 41 40 39 39 38 38 38 37 37 36 36 35 34 32 31 29 28 27 25 24 23 23 22 22
47 47 47 47 47 46 45 44 43 42 41 40 39 38 38 37 37 36 36 36 35 35 34 33 33 32 31 30 28 27 26 25 24 23 21 21 21 21
45 45 44 44 44 42 40 39 38 38 37 36 36 36 35 35 34 34 34 33 33 32 31 30 30 30 29 28 27 25 24 23 22 21 21 21 21 20
43 42 42 41 40 38 37 36 35 35 34 33 33 33 33 32 32 31 31 30 29 28 28 27 27 27 27 26 25 23 22 21 20 20 20 20 19 19
Wind_Direction
273 275 275 275 276 277 277 277 278 278 279 280 281 282 283 283 283 283 282 282 282 283 283 283 283 283 282 282 281 281 281 280 280 279 278 277 276 275
275 276 277 278 278 277 277 278 279 279 279 280 281 282 282 282 283 283 283 283 283 284 284 284 284 283 283 282 281 281 281 280 279 278 277 276 276 275
275 276 277 277 278 278 279 279 280 280 281 281 282 282 282 283 283 283 283 283 283 283 283 284 284 283 283 283 282 282 281 280 279 278 277 276 275 275
274 276 277 277 278 278 280 281 282 282 282 282 282 282 283 283 283 283 283 284 284 283 284 284 284 283 283 283 283 283 282 281 279 278 277 276 276 274
275 276 277 278 279 279 280 282 283 284 283 284 284 283 283 283 284 283 284 284 284 284 284 284 284 284 284 284 284 284 283 282 281 280 278 277 276 275
277 278 279 280 280 281 282 282 283 284 284 284 284 284 284 284 285 285 285 285 285 286 286 286 286 286 286 286 285 284 283 282 281 280 279 278 276 275
279 279 280 281 281 282 282 283 284 285 285 285 285 285 285 285 285 286 286 287 287 287 287 288 287 287 286 286 285 284 283 282 281 280 279 278 277 276
280 280 280 281 281 282 283 284 284 285 285 286 286 287 287 287 287 287 287 288 288 288 288 289 288 288 287 287 286 284 283 282 281 280 279 278 277 276
280 280 281 281 282 283 284 285 285 286 286 287 288 288 288 288 288 289 289 290 290 290 289 289 289 289 289 288 287 286 285 284 283 281 280 279 278 276
280 281 281 282 283 284 284 285 286 286 287 288 289 289 289 289 289 290 291 291 291 290 290 290 290 290 290 289 288 286 285 285 283 282 281 280 278 277
281 282 282 283 284 285 285 285 286 286 286 287 288 289 290 291 292 292 292 292 291 291 291 291 291 290 290 289 288 287 286 285 284 283 282 280 279 277
282 282 283 284 285 286 286 286 286 286 286 287 288 289 291 292 292 292 292 292 292 292 292 292 292 291 290 289 289 288 287 286 285 284 282 281 279 278
282 283 284 285 285 286 287 287 287 287 287 287 288 289 290 291 292 292 292 293 293 293 293 293 293 292 292 291 290 290 289 288 286 285 283 280 279 278
283 284 284 285 285 286 287 288 288 288 288 288 289 290 290 291 291 291 292 293 294 294 294 294 294 293 293 293 292 291 291 289 288 286 284 281 279 277
284 284 284 284 285 286 288 288 288 288 289 289 290 290 290 290 290 291 292 293 294 295 295 295 295 293 293 294 293 293 292 290 288 286 284 281 279 277
284 284 285 285 286 287 288 288 289 289 289 290 290 290 290 290 290 291 291 292 293 294 294 294 294 294 294 294 293 293 291 289 287 285 284 282 279 277
283 284 285 286 287 288 289 289 289 289 290 290 290 290 290 290 290 290 290 291 292 293 293 293 293 294 294 294 294 292 291 289 287 284 282 280 279 276
284 285 286 287 287 288 289 289 289 289 290 290 290 290 290 290 290 290 290 292 293 293 293 293 293 294 294 294 293 292 290 289 286 284 282 279 278 276
285 286 287 287 288 288 288 288 288 289 289 289 289 290 290 290 290 290 291 292 293 293 293 293 293 293 293 292 292 291 290 287 285 283 280 278 277 275
287 288 288 288 289 289 288 288 288 288 288 289 290 290 290 290 290 290 291 293 293 293 292 292 293 293 293 293 292 291 289 286 285 282 279 277 277 276
289 290 290 290 289 289 289 289 288 288 289 290 290 289 290 290 290 290 291 292 293 292 291 291 291 292 292 292 291 289 287 285 284 282 280 278 277 276
290 290 290 290 290 289 288 288 288 289 289 289 289 290 290 290 290 291 292 293 293 292 291 291 291 291 291 291 290 288 284 283 283 283 283 282 279 277
290 290 290 290 289 289 288 288 288 289 289 289 289 289 289 289 290 292 294 294 293 292 291 292 292 292 291 290 288 286 283 281 281 282 283 282 280 277